Location: Recife
(8.0585°S, 34.8848°W)
Time: 14:54:48
(UTC-03:00)

Tiros 1 despin weight - Pass Details

Date: 15 April 2026
Orbit: 555 x 591 km, 48.2° (Epoch: 14 May)

Event Time Altitude Azimuth Distance (km) Brightness Sun altitude
Rises 01:10:07 0° 330° (NNW) 2,802 - -62.7°
Reaches altitude 10° 01:12:27 10° 336° (NNW) 1,904 - -62.1°
Maximum altitude 01:16:41 50° 51° (NE) 753 - -61.1°
Drops below altitude 10° 01:20:54 10° 127° (SE) 1,904 - -60.0°
Sets 01:23:14 0° 132° (SE) 2,802 - -59.4°
